Tracking 34138 objects as of 17-May-2026
HD Live streaming from Space Station
objects crossing your sky now

OPS 3367 A

Track OPS 3367 A now!
10-day predictions
OPS 3367 A is classified as:


NORAD ID: 734
Int'l Code: 1964-002B
Perigee: 790.3 km
Apogee: 809.5 km
Inclination: 99.0 °
Period: 100.7 minutes
Semi major axis: 7170 km
RCS: 0.3359 m2 (medium)
Launch date: January 19, 1964
Source: United States (US)
Launch site: AIR FORCE WESTERN TEST RANGE (AFWTR)
Your satellite tracking list
Your tracking list is empty




NASA's NSSDC Master Catalog

Two Line Element Set (TLE):
1   734U 64002B   26136.81841926  .00000043  00000-0  35190-4 0  9992
2   734  98.9792  66.0096 0013389 278.7265  81.2399 14.29693209244285
Source of the keplerian elements: AFSPC